Regional Weather Roundup
Issued by NWS

Home | Current Version | Previous Version | Graphics & Text | Print | Product List | Glossary On
Versions: 1 2 3 4 5 6 7 8 9 10 11 12 13 14 15 16 17 18 19 20 21 22 23 24 25 26 27 28 29 30 31 32 33 34 35 36 37 38 39 40 41 42 43 44 45 46 47 48 49 50
000
ASUS43 KLOT 301100
RWRIL

ILLINOIS REGIONAL WEATHER ROUNDUP
NATIONAL WEATHER SERVICE CHICAGO/ROMEOVILLE IL
600 AM CDT SAT AUG 30 2014

NOTE: "FAIR" INDICATES FEW OR NO CLOUDS BELOW 12,000 FEET WITH NO
SIGNIFICANT WEATHER AND/OR OBSTRUCTIONS TO VISIBILITY.

* THESE STATIONS ARE NOT UNDER NWS QUALITY CONTROL. THEY ALSO MAY NOT
  REPORT WEATHER SUCH AS PRECIPITATION OR FOG.

ILZ001-002-007-009-015-016-024-301200-
NORTHWEST ILLINOIS

CITY           SKY/WX    TMP DP  RH WIND       PRES   REMARKS
MOLINE         MOCLDY    69  66  90 S5        29.81F
STERLING*      CLOUDY    68  64  88 W3        29.83S
$$

ILZ003-004-008-010-011-017-018-301200-
NORTH CENTRAL ILLINOIS

CITY           SKY/WX    TMP DP  RH WIND       PRES   REMARKS
ROCKFORD       RAIN      70  68  93 S8        29.82F
$$

ILZ005-006-012>014-019>023-301200-
NORTHEAST ILLINOIS

CITY           SKY/WX    TMP DP  RH WIND       PRES   REMARKS
CHICAGO-OHARE  MOCLDY    73  66  78 SW10      29.85R
CHICAGO-MIDWAY CLOUDY    75  70  84 SW9       29.85R
AURORA         MOCLDY    71  68  90 S6        29.86R FOG
WAUKEGAN       MOCLDY    72  68  87 SW10      29.82R
DUPAGE AIRPORT MOCLDY    72  69  90 S8        29.85R
WHEELING       CLOUDY    75  69  81 SW7       29.85R
NORTHERLY ISL    N/A     75  67  76 S9          N/A
$$

LMZ740>746-301200-
SOUTHERN LAKE MICHIGAN

STATION/POSITION SKY/WX   TEMP    WIND        PRES    VSBY  WAVE
                          AIR SEA DIR/SP/G                  HT/PER
                          (F)     (DEG/KT/KT) (MB)    (MI)  (FT/S)
SOUTHERN BUOY              72 69  180/ 17/ 19 1009.4F         4/ 5
WAUKEGAN HARBOR            74     230/ 12/ 16   N/A
HARRISON CRIB              75     210/ 20/ 26   N/A
BURNHAM HARBOR             75     190/  7/ 15   N/A
CALUMET HARBOR             75     200/ 10/ 13 1009.8R
MICHIGAN CITY              74     160/ 14/ 21   N/A
MICHIGAN CITY 6N           74 72  190/ 14/ 17   N/A           1/ 3
ST. JOSEPH                 73 71  180/ 16/ 19   N/A           3/ 4
$$

ILZ025>027-034>036-040-047-049-050-058-095>099-301200-
WEST-CENTRAL ILLINOIS

CITY           SKY/WX    TMP DP  RH WIND       PRES   REMARKS
QUINCY         PTCLDY    70  68  93 S9        29.88R
MACOMB*        CLOUDY    69  67  93 SW7       29.87R
$$

ILZ028>032-037-038-041>044-048-051>054-059>061-301200-
CENTRAL ILLINOIS

CITY           SKY/WX    TMP DP  RH WIND       PRES   REMARKS
DECATUR        CLOUDY    73  69  87 SW14      29.93R
PEORIA         MOCLDY    72  69  90 S9        29.86F
SPRINGFIELD    CLOUDY    73  69  87 SW7       29.91R
TAYLORVILLE    NOT AVBL
$$

ILZ033-039-045-046-055>057-062-063-301200-
EAST-CENTRAL ILLINOIS

CITY           SKY/WX    TMP DP  RH WIND       PRES   REMARKS
CHAMPAIGN      CLOUDY    72  69  90 S9        29.93S
MATTOON        CLOUDY    72  68  87 S9        29.95R
$$

ILZ079-100>102-301200-
SOUTHWEST ILLINOIS

CITY           SKY/WX    TMP DP  RH WIND       PRES   REMARKS
BELLEVILLE     CLOUDY    71  71  99 VRB1      29.94S
CAHOKIA*       MOCLDY    72  69  90 SE3       29.94R
$$

ILZ064>066-069>071-074>076-080>082-084>086-088>090-092>094-301200-
SOUTH-CENTRAL ILLINOIS

CITY           SKY/WX    TMP DP  RH WIND       PRES   REMARKS
CARBONDALE     LGT RAIN  73  69  87 SW9       29.99R FOG
MT. VERNON     CLOUDY    72  66  83 S3        29.99R
$$

ILZ067-068-072-073-078-083-087-091-301200-
SOUTHEAST ILLINOIS

CITY           SKY/WX    TMP DP  RH WIND       PRES   REMARKS
LAWRENCEVILLE  CLOUDY    73  70  90 S7        29.99R
ROBINSON*      HVY RAIN  74  71  90 SW8       29.98S
$$

ABBREVIATIONS USED IN REMARKS
   TC - TEMPERATURE IN CELSIUS
  WCI - WIND CHILL INDEX
   HX - HEAT INDEX
  VSB - VISIBILITY
$$




USA.gov is the U.S. government's official web portal to all federal, state and local government web resources and services.